Meteo pe oră la Bolshie Prudy

Astăzi, 8 Mai, Sâmbătă

Timp Temperatura Precipitaţii Vânt Presiune Umiditate
00:00 +7°C° 0.2 mm 4 m/s 738 mmHg 75%
01:00 +7°C° 0.2 mm 5 m/s 738 mmHg 78%
02:00 +7°C° 0.2 mm 5 m/s 738 mmHg 81%
03:00 +7°C° 1.3 mm 6 m/s 737 mmHg 85%
04:00 +6°C° 1.3 mm 7 m/s 736 mmHg 89%
05:00 +6°C° 1.3 mm 8 m/s 736 mmHg 93%
06:00 +6°C° 0.8 mm 8 m/s 735 mmHg 92%
07:00 +6°C° 0.8 mm 8 m/s 735 mmHg 92%
08:00 +6°C° 0.8 mm 9 m/s 735 mmHg 91%
09:00 +7°C° 1.2 mm 8 m/s 734 mmHg 92%
10:00 +7°C° 1.2 mm 8 m/s 734 mmHg 93%
11:00 +7°C° 1.2 mm 8 m/s 733 mmHg 93%
12:00 +7°C° 2.5 mm 8 m/s 733 mmHg 94%
13:00 +9°C° 2.5 mm 7 m/s 732 mmHg 94%
14:00 +9°C° 2.5 mm 7 m/s 732 mmHg 95%
15:00 +9°C° 1.1 mm 7 m/s 731 mmHg 94%
16:00 +9°C° 1.1 mm 6 m/s 731 mmHg 94%
17:00 +9°C° 1.1 mm 6 m/s 731 mmHg 93%
18:00 +9°C° 0 mm 6 m/s 731 mmHg 94%
19:00 +8°C° 0 mm 5 m/s 732 mmHg 94%
20:00 +8°C° 0 mm 5 m/s 732 mmHg 95%
21:00 +7°C° 0.3 mm 6 m/s 732 mmHg 95%
22:00 +5°C° 0.3 mm 6 m/s 733 mmHg 95%
23:00 +4°C° 0.3 mm 7 m/s 733 mmHg 95%

Mâine, 9 Mai, Duminică

Timp Temperatura Precipitaţii Vânt Presiune Umiditate
00:00 +2°C° 1.4 mm 8 m/s 734 mmHg 95%
01:00 +1°C° 1.4 mm 8 m/s 735 mmHg 95%
02:00 +1°C° 1.4 mm 9 m/s 736 mmHg 96%
03:00 +1°C° 0.5 mm 8 m/s 737 mmHg 95%
04:00 +2°C° 0.5 mm 7 m/s 737 mmHg 94%
05:00 +2°C° 0.5 mm 7 m/s 738 mmHg 93%
06:00 +2°C° 0 mm 7 m/s 739 mmHg 87%
07:00 +3°C° 0 mm 7 m/s 739 mmHg 81%
08:00 +4°C° 0 mm 7 m/s 740 mmHg 76%
09:00 +4°C° 0 mm 7 m/s 740 mmHg 72%
10:00 +5°C° 0 mm 7 m/s 741 mmHg 68%
11:00 +6°C° 0 mm 7 m/s 742 mmHg 64%
12:00 +6°C° 0 mm 7 m/s 742 mmHg 63%
13:00 +6°C° 0 mm 7 m/s 743 mmHg 62%
14:00 +6°C° 0 mm 7 m/s 744 mmHg 61%
15:00 +7°C° 0 mm 6 m/s 744 mmHg 62%
16:00 +8°C° 0 mm 5 m/s 744 mmHg 62%
17:00 +8°C° 0 mm 4 m/s 745 mmHg 63%
18:00 +7°C° 0 mm 4 m/s 745 mmHg 68%
19:00 +5°C° 0 mm 3 m/s 746 mmHg 72%
20:00 +4°C° 0 mm 3 m/s 746 mmHg 77%
21:00 +3°C° 0 mm 3 m/s 747 mmHg 78%
22:00 +3°C° 0 mm 3 m/s 747 mmHg 78%
23:00 +3°C° 0 mm 3 m/s 747 mmHg 78%

Poimâine, 10 Mai, Luni

Timp Temperatura Precipitaţii Vânt Presiune Umiditate
00:00 +2°C° 0 mm 3 m/s 748 mmHg 78%
01:00 +2°C° 0 mm 3 m/s 748 mmHg 79%
02:00 +2°C° 0 mm 3 m/s 749 mmHg 79%
03:00 +2°C° 0 mm 3 m/s 749 mmHg 79%
04:00 +2°C° 0 mm 3 m/s 749 mmHg 78%
05:00 +2°C° 0 mm 3 m/s 750 mmHg 78%
06:00 +4°C° 0 mm 3 m/s 750 mmHg 71%
07:00 +6°C° 0 mm 4 m/s 750 mmHg 65%
08:00 +8°C° 0 mm 4 m/s 751 mmHg 58%
09:00 +10°C° 0 mm 4 m/s 751 mmHg 54%
10:00 +10°C° 0 mm 5 m/s 751 mmHg 51%
11:00 +12°C° 0 mm 5 m/s 750 mmHg 47%
12:00 +11°C° 0 mm 6 m/s 750 mmHg 47%
13:00 +13°C° 0 mm 6 m/s 750 mmHg 46%
14:00 +13°C° 0 mm 6 m/s 750 mmHg 46%
15:00 +13°C° 0 mm 6 m/s 750 mmHg 51%
16:00 +13°C° 0 mm 5 m/s 750 mmHg 55%
17:00 +12°C° 0 mm 5 m/s 750 mmHg 59%
18:00 +11°C° 0 mm 4 m/s 750 mmHg 64%
19:00 +8°C° 0 mm 4 m/s 750 mmHg 70%
20:00 +7°C° 0 mm 3 m/s 750 mmHg 75%
21:00 +6°C° 0 mm 4 m/s 750 mmHg 74%
22:00 +6°C° 0 mm 4 m/s 750 mmHg 73%
23:00 +5°C° 0 mm 4 m/s 750 mmHg 72%

11 Mai, Marţi

Timp Temperatura Precipitaţii Vânt Presiune Umiditate
00:00 +5°C° 0 mm 4 m/s 750 mmHg 73%
01:00 +5°C° 0 mm 4 m/s 750 mmHg 74%
02:00 +3°C° 0 mm 5 m/s 750 mmHg 75%
03:00 +5°C° 0 mm 5 m/s 750 mmHg 74%
04:00 +5°C° 0 mm 5 m/s 749 mmHg 72%
05:00 +4°C° 0 mm 6 m/s 749 mmHg 71%
06:00 +7°C° 0 mm 6 m/s 749 mmHg 68%
07:00 +8°C° 0 mm 7 m/s 749 mmHg 65%
08:00 +10°C° 0 mm 7 m/s 749 mmHg 61%
09:00 +11°C° 0 mm 7 m/s 749 mmHg 59%
10:00 +12°C° 0 mm 7 m/s 749 mmHg 57%
11:00 +13°C° 0 mm 8 m/s 749 mmHg 55%
12:00 +14°C° 0 mm 7 m/s 749 mmHg 59%
13:00 +14°C° 0 mm 7 m/s 748 mmHg 62%
14:00 +14°C° 0 mm 6 m/s 748 mmHg 66%
15:00 +14°C° 0 mm 6 m/s 748 mmHg 69%
16:00 +14°C° 0 mm 5 m/s 748 mmHg 71%
17:00 +14°C° 0 mm 5 m/s 748 mmHg 74%
18:00 +12°C° 0 mm 5 m/s 748 mmHg 79%
19:00 +11°C° 0 mm 4 m/s 748 mmHg 84%
20:00 +10°C° 0 mm 3 m/s 748 mmHg 88%
21:00 +10°C° 0 mm 4 m/s 747 mmHg 85%
22:00 +10°C° 0 mm 5 m/s 747 mmHg 81%
23:00 +10°C° 0 mm 5 m/s 746 mmHg 78%

12 Mai, Miercuri

Timp Temperatura Precipitaţii Vânt Presiune Umiditate
00:00 +10°C° 0.1 mm 5 m/s 746 mmHg 82%
01:00 +10°C° 0.1 mm 4 m/s 746 mmHg 86%
02:00 +10°C° 0.1 mm 4 m/s 746 mmHg 90%
03:00 +10°C° 0.1 mm 3 m/s 746 mmHg 91%
04:00 +9°C° 0.1 mm 3 m/s 746 mmHg 93%
05:00 +9°C° 0.1 mm 2 m/s 746 mmHg 94%
06:00 +10°C° 0 mm 3 m/s 747 mmHg 87%
07:00 +11°C° 0 mm 3 m/s 747 mmHg 81%
08:00 +13°C° 0 mm 4 m/s 747 mmHg 74%
09:00 +13°C° 0 mm 4 m/s 747 mmHg 70%
10:00 +14°C° 0 mm 5 m/s 747 mmHg 65%
11:00 +15°C° 0 mm 5 m/s 747 mmHg 61%
12:00 +15°C° 0 mm 5 m/s 746 mmHg 63%
13:00 +16°C° 0 mm 6 m/s 746 mmHg 65%
14:00 +16°C° 0 mm 6 m/s 746 mmHg 67%
15:00 +15°C° 0.1 mm 5 m/s 746 mmHg 74%
16:00 +14°C° 0.1 mm 5 m/s 745 mmHg 81%
17:00 +13°C° 0.1 mm 4 m/s 745 mmHg 87%
18:00 +13°C° 0 mm 3 m/s 745 mmHg 90%
19:00 +12°C° 0 mm 3 m/s 745 mmHg 93%
20:00 +13°C° 0 mm 2 m/s 744 mmHg 97%
21:00 +13°C° 0.1 mm 2 m/s 744 mmHg 97%
22:00 +13°C° 0.1 mm 2 m/s 744 mmHg 98%
23:00 +13°C° 0.1 mm 2 m/s 744 mmHg 98%

13 Mai, Joi

Timp Temperatura Precipitaţii Vânt Presiune Umiditate
00:00 +13°C° 0.2 mm 2 m/s 744 mmHg 98%
01:00 +13°C° 0.2 mm 2 m/s 743 mmHg 98%
02:00 +13°C° 0.2 mm 2 m/s 743 mmHg 98%
03:00 +12°C° 1.2 mm 3 m/s 743 mmHg 98%
04:00 +13°C° 1.2 mm 3 m/s 743 mmHg 98%
05:00 +13°C° 1.2 mm 3 m/s 743 mmHg 98%
06:00 +13°C° 0.5 mm 3 m/s 743 mmHg 97%
07:00 +13°C° 0.5 mm 4 m/s 743 mmHg 97%
08:00 +13°C° 0.5 mm 4 m/s 743 mmHg 97%
09:00 +13°C° 0.1 mm 4 m/s 743 mmHg 93%
10:00 +14°C° 0.1 mm 4 m/s 743 mmHg 90%
11:00 +15°C° 0.1 mm 4 m/s 743 mmHg 87%
12:00 +17°C° 0.2 mm 4 m/s 743 mmHg 83%
13:00 +17°C° 0.2 mm 4 m/s 743 mmHg 80%
14:00 +18°C° 0.2 mm 4 m/s 743 mmHg 77%
15:00 +18°C° 0.2 mm 4 m/s 743 mmHg 78%
16:00 +18°C° 0.2 mm 4 m/s 743 mmHg 79%
17:00 +18°C° 0.2 mm 4 m/s 743 mmHg 79%
18:00 +17°C° 0 mm 3 m/s 743 mmHg 84%
19:00 +16°C° 0 mm 3 m/s 743 mmHg 89%
20:00 +13°C° 0 mm 3 m/s 743 mmHg 93%
21:00 +13°C° 0 mm 3 m/s 743 mmHg 94%
22:00 +13°C° 0 mm 3 m/s 743 mmHg 95%
23:00 +12°C° 0 mm 3 m/s 743 mmHg 95%
Arată mai mult

Formular de consimțământ

Meteoprog și furnizorii noștri de servicii pot stoca și accesa date personale, precum cookies, identificatori de dispozitiv sau alte tehnologii similare pe dispozitivul dumneavoastră și procesa astfel de date pentru a personaliza conținutul și reclamele, dar și pentru a oferi caracteristici de social media și pentru a analiza traficul.

  • Stocarea și/sau accesarea informațiilor pe dispozitivul dumneavoastră

    Cookies, identificatori de dispozitiv sau alte informații pot fi stocate sau accesate pe dispozitiv în scopurile indicate mai sus.

  • Reclame și conținut personalizat, evaluarea reclamelor și a conținutului, informații despre audiențe și dezvoltarea produselor

    Reclamele și conținutul pot fi personalizate pe baza unui profil. Pot fi adăugate date suplimentare pentru a personaliza mai bine reclamele și conținutul. Performanța reclamelor și conținutului poate fi măsurată. Pot fi obținute informații despre utilizatorii care au văzut reclamele și conținutul. Aceste date pot fi utilizate pentru a dezvolta sau îmbunătăți experiența utilizatorilor, sistemele și software-ul.

Dând clic pe ‘Sunt de acord’, permiteți utilizarea cookie-urilor menționate, a identificatorilor de dispozitiv, balizelor web sau altor tehnologii similare. Setările pot fi modificate din browser-ul dispozitivului dumneavoastră.

În anumite scopuri, interesele legitime pot prima asupra consimțământului. Puteți citi mai multe informații în acest sens în Politica privind Confidențialitatea Datelor și Cookie.